This demonstration page uses our WeatherBlox Daily Observations layout. Learn more.

Left ArrowRight Arrow

Hourly Observations for May 30, 2020

Temp ( °F °C ) Dew Point ( °F °C ) Humidity (%) Winds ( mph kmh ) Pressure ( in mb ) Visibility ( mi km ) Precip ( " mm )
12:53 am 00:53 Clear 74 23.3 46 7.8 37 37 SE 12 19 30.05 1018 10 16 0.00 0.00
1:53 am 01:53 Clear 72 22.2 44 6.7 37 37 ESE 12 19 30.05 1018 10 16 0.00 0.00
2:53 am 02:53 Clear 69 20.6 44 6.7 41 41 ESE 9 15 30.04 1017 10 16 0.00 0.00
3:53 am 03:53 Clear 67 19.4 44 6.7 44 44 ESE 7 11 30.05 1018 10 16 0.00 0.00
4:53 am 04:53 Clear 67 19.4 45 7.2 45 45 ESE 9 15 30.05 1018 10 16 0.00 0.00
5:53 am 05:53 Clear 66 18.9 46 7.8 49 49 ESE 8 13 30.05 1018 10 16 0.00 0.00
6:53 am 06:53 Sunny 64 17.8 46 7.8 52 52 ESE 10 17 30.06 1018 10 16 0.00 0.00
7:53 am 07:53 Sunny 67 19.4 48 8.9 51 51 SE 9 15 30.08 1019 10 16 0.00 0.00
8:53 am 08:53 Sunny 72 22.2 49 9.4 44 44 SE 12 19 30.08 1019 10 16 0.00 0.00
9:53 am 09:53 Sunny 77 25 49 9.4 37 37 S 15 24 30.08 1019 10 16 0.00 0.00
10:53 am 10:53 Sunny 79 26.1 47 8.3 32 32 SSE 14 22 30.06 1018 10 16 0.00 0.00
11:53 am 11:53 Sunny 82 27.8 45 7.2 27 27 SSE 15 24 30.05 1018 10 16 0.00 0.00
12:53 pm 12:53 Sunny 85 29.4 44 6.7 24 24 S 13 20 30.03 1017 10 16 0.00 0.00
1:53 pm 13:53 Sunny 87 30.6 45 7.2 23 23 SE 9 15 30.00 1016 10 16 0.00 0.00
2:53 pm 14:53 Sunny 88 31.1 45 7.2 22 22 ESE 14 22 29.98 1015 10 16 0.00 0.00
3:53 pm 15:53 Sunny 90 32.2 46 7.8 22 22 E 15 24 29.95 1014 10 16 0.00 0.00
4:53 pm 16:53 Sunny 90 32.2 45 7.2 21 21 SE 17 28 29.93 1014 10 16 0.00 0.00
5:53 pm 17:53 Sunny 90 32.2 44 6.7 20 20 SSE 13 20 29.91 1013 10 16 0.00 0.00
6:53 pm 18:53 Sunny 89 31.7 43 6.1 20 20 ESE 15 24 29.90 1013 10 16 0.00 0.00
7:53 pm 19:53 Sunny 88 31.1 44 6.7 22 22 SE 9 15 29.90 1012 10 16 0.00 0.00
8:53 pm 20:53 Clear 84 28.9 40 4.4 21 21 SE 12 19 29.91 1013 10 16 0.00 0.00
9:53 pm 21:53 Clear 81 27.2 40 4.4 23 23 ESE 12 19 29.93 1013 10 16 0.00 0.00
10:53 pm 22:53 Clear 79 26.1 44 6.7 29 29 ESE 15 24 29.94 1014 10 16 0.00 0.00
11:53 pm 23:53 Clear 77 25 47 8.3 35 35 ESE 13 20 29.96 1014 10 16 0.00 0.00

Powered by AerisWeather